Location: Ponte Samoggia
(44.5667°N, 11.1333°E)
Time: 23:08:35
(UTC+00:00)

Cosmos 2369 Rocket - Pass Details

Date: 26 May 2022
Orbit: 830 x 851 km, 71.0° (Epoch: 26 June)

Event Time Altitude Azimuth Distance (km) Brightness Sun altitude
Rises 01:51:32 0° 335° (NNW) 3,384 5.7 -15.0°
Reaches altitude 10° 01:53:59 10° 336° (NNW) 2,446 5.0 -14.7°
Maximum altitude 01:59:36 80° 64° (ENE) 847 2.3 -14.1°
Drops below altitude 10° 02:05:11 10° 152° (SSE) 2,431 4.4 -13.4°
Sets 02:07:36 0° 153° (SSE) 3,362 5.1 -13.1°
